Regional Weather Roundup
Issued by NWS

Home | Current Version | Previous Version | Text Only | Print | Product List | Glossary On
Versions: 1 2 3 4 5 6 7 8 9 10 11 12 13 14 15 16 17 18 19 20 21 22 23 24 25 26 27 28 29 30 31 32 33 34 35 36 37 38 39 40 41 42 43 44 45 46 47 48 49 50
000
ASUS43 KTOP 300608
RWRKS

WEATHER ROUNDUP FOR KANSAS
NATIONAL WEATHER SERVICE GOODLAND KS
100 AM CDT MON MAR 30 2015

NOTE:  "FAIR" INDICATES FEW OR NO CLOUDS BELOW 12,000 FEET WITH NO
SIGNIFICANT WEATHER AND/OR OBSTRUCTIONS TO VISIBILITY.

KSZ001>006-013>018-027>032-041>047-300700-
NORTHWEST KANSAS

CITY           SKY/WX    TMP DP  RH WIND       PRES   REMARKS
GOODLAND       MOCLDY    44  21  40 S13       30.19F
6HR MIN TEMP:  39; 6HR MAX TEMP:  63;

HAYS           CLEAR     36  12  38 NW3       30.21R
HILL CITY      CLEAR     33  15  47 W5        30.21R
6HR MIN TEMP:  32; 6HR MAX TEMP:  65;

RUSSELL        CLEAR     38  18  44 S7        30.19S
6HR MIN TEMP:  37; 6HR MAX TEMP:  66;

$$

KSZ061>065-074>080-084>089-300700-
SOUTHWEST KANSAS

CITY           SKY/WX    TMP DP  RH WIND       PRES   REMARKS
DODGE CITY     CLEAR     48  22  35 SE6       30.23S
6HR MIN TEMP:  41; 6HR MAX TEMP:  67;

ELKHART          N/A     45  25  45 SE9         N/A
GARDEN CITY    CLEAR     42  26  53 SE8       30.21F
6HR MIN TEMP:  40; 6HR MAX TEMP:  65;

GREAT BEND     CLEAR     36  19  51 CALM      30.21S
LIBERAL        PTCLDY    50  27  40 E3        30.24R
PRATT          CLEAR     46  21  36 E5        30.21F
$$

KSZ066>073-081>083-090>101-300700-
SOUTHEAST KANSAS

CITY           SKY/WX    TMP DP  RH WIND       PRES   REMARKS
CHANUTE        CLEAR     45  37  73 N3        30.19S
6HR MIN TEMP:  45; 6HR MAX TEMP:  69;

COFFEYVILLE    CLEAR     43  39  86 NE3       30.19R
6HR MIN TEMP:  43; 6HR MAX TEMP:  63;

HUTCHINSON     CLEAR     41  28  60 CALM      30.21S
6HR MIN TEMP:  40; 6HR MAX TEMP:  70;

MEDICINE LODGE   N/A     44  31  60 N5        30.19F
NEWTON         CLEAR     46  28  49 E3        30.22S
PARSONS        CLEAR     41  37  86 CALM      30.19S
6HR MIN TEMP:  41; 6HR MAX TEMP:  65;

WICHITA INTL   CLEAR     53  32  44 NE5       30.20R
6HR MIN TEMP:  51; 6HR MAX TEMP:  70;

WICHITA JABRA  CLEAR     47  34  60 NE5       30.20R
6HR MIN TEMP:  47; 6HR MAX TEMP:  68;

WICHITA MCCONL CLEAR     50  35  55 NE5       30.19S
WINFIELD       CLEAR     51  35  54 E5        30.20R
6HR MIN TEMP:  46; 6HR MAX TEMP:  70;

$$

KSZ007>012-019>026-033>040-048>060-102>105-300700-
NORTHEAST KANSAS

CITY           SKY/WX    TMP DP  RH WIND       PRES   REMARKS
CONCORDIA      CLEAR     44  22  41 S5        30.19R
6HR MIN TEMP:  43; 6HR MAX TEMP:  63;

EMPORIA        CLEAR     45  33  63 CALM      30.19S
6HR MIN TEMP:  40; 6HR MAX TEMP:  66;

LAWRENCE       CLEAR     33  30  88 N6        30.18R
6HR MIN TEMP:  32; 6HR MAX TEMP:  61;

MANHATTAN      PTCLDY    34  30  85 CALM      30.20R
6HR MIN TEMP:  33; 6HR MAX TEMP:  63;

MARYSVILLE     CLEAR     36  30  80 S3        30.17S
OLATHE IND     CLEAR     41  35  79 S3        30.18R
6HR MIN TEMP:  38; 6HR MAX TEMP:  60;

OLATHE EXE     CLEAR     41  34  76 CALM      30.16S
6HR MIN TEMP:  41; 6HR MAX TEMP:  61;

SALINA         CLEAR     39  23  52 SW5       30.21R
6HR MIN TEMP:  39; 6HR MAX TEMP:  68;

TOPEKA BILLARD CLEAR     37  34  89 CALM      30.18S
6HR MIN TEMP:  37; 6HR MAX TEMP:  62;

TOPEKA FORBES  CLEAR     41  33  73 W5        30.18R
6HR MIN TEMP:  38; 6HR MAX TEMP:  63;

$$


USA.gov is the U.S. government's official web portal to all federal, state and local government web resources and services.